Location: Wolf Lake
(46.8518°N, 80.6381°W)
Time: 15:00:20
(UTC-04:00)

ISS - Visible Passes

Search period start: 06 July 2020 00:00
Search period end: 16 July 2020 00:00
Orbit: 417 x 421 km, 51.6° (Epoch: 07 July)

Date Brightness Start Highest point End Pass type
(mag) Time Alt. Az. Time Alt. Az. Time Alt. Az.
06 Jul -1.8 02:02:41 20° E 02:02:41 20° E 02:04:11 10° E visible
06 Jul -3.3 03:35:37 19° W 03:37:52 60° NNW 03:41:13 10° ENE visible
07 Jul -3.8 02:49:29 51° WSW 02:50:14 83° NNW 02:53:36 10° ENE visible
07 Jul -2.2 04:24:11 10° WNW 04:27:19 35° N 04:30:28 10° ENE visible
08 Jul -3.3 02:03:17 51° E 02:03:17 51° E 02:05:59 10° ENE visible
08 Jul -2.4 03:36:24 10° W 03:39:36 39° N 03:42:48 10° ENE visible
09 Jul -1.8 01:17:01 20° E 01:17:01 20° E 01:18:17 10° ENE visible
09 Jul -2.8 02:49:56 21° W 02:51:53 47° NNW 02:55:09 10° ENE visible
09 Jul -2.1 04:25:59 10° WNW 04:29:07 35° N 04:32:15 10° ENE visible
10 Jul -3.3 02:03:34 49° WNW 02:04:11 61° NNW 02:07:31 10° ENE visible
10 Jul -2.1 03:38:14 10° WNW 03:41:21 34° N 03:44:29 10° ENE visible
11 Jul -3.4 01:17:04 58° NE 01:17:04 58° NE 01:19:53 10° ENE visible
11 Jul -2.2 02:50:27 10° WNW 02:53:35 36° N 02:56:43 10° ENE visible
11 Jul -2.6 04:27:35 10° WNW 04:30:50 45° NNE 04:34:05 10° E visible
12 Jul -2.4 00:30:20 30° ENE 00:30:20 30° ENE 00:32:12 10° ENE visible
12 Jul -2.4 02:03:12 14° WNW 02:05:49 39° N 02:09:01 10° ENE visible
12 Jul -2.2 03:39:53 10° WNW 03:43:04 38° N 03:46:16 10° E visible
12 Jul -2.2 23:42:57 23° E 23:42:57 23° E 23:44:28 10° ENE visible
13 Jul -2.8 01:15:44 17° W 01:18:03 47° NNW 01:21:20 10° ENE visible
13 Jul -2.1 02:52:09 10° WNW 02:55:17 35° N 02:58:26 10° ENE visible
13 Jul -3.6 04:29:02 10° WNW 04:32:24 78° NNE 04:35:46 10° ESE visible
13 Jul -2.9 22:50:45 10° SSW 22:53:40 28° SE 22:56:37 10° E visible
14 Jul -3.3 00:26:58 10° WSW 00:30:18 61° NNW 00:33:38 10° ENE visible
14 Jul -2.0 02:04:22 10° WNW 02:07:29 34° N 02:10:36 10° ENE visible
14 Jul -3.1 03:41:21 10° WNW 03:44:41 57° NNE 03:48:00 10° E visible
14 Jul -2.3 22:03:44 10° S 22:06:09 18° SE 22:08:33 10° E visible
14 Jul -3.8 23:39:14 10° WSW 23:42:36 84° NNW 23:45:58 10° ENE visible
15 Jul -2.1 01:16:32 10° WNW 01:19:40 36° N 01:22:49 10° ENE visible
15 Jul -2.6 02:53:40 10° WNW 02:56:55 45° NNE 03:00:10 10° E visible
15 Jul -3.6 04:30:30 10° WNW 04:33:45 48° SW 04:37:00 10° SE visible
15 Jul -3.9 22:51:34 10° SW 22:54:54 67° SSE 22:58:15 10° ENE visible
